Погода в Хуан-Долио

Доминиканская Республика     18°26′37″N   69°24′47″W
темп.,
°C
ветер,
м/с
пор.,
м/с
влажн.,
%
обл.,
%
осадки,
мм/ч
давл.,
гПа
погр.,
м
13 мая, чт
чт1323:00+23св39860 0.0 1018321
02:00+22св24944 0.0 1017112
05:00+22св23969 0.0 101761
08:00+26всв477812 0.0 1018610
11:00+31вюв45504 0.1 10171719
14:00+31юв65505 0.1 10151198
17:00+29юв67530 0.0 1014841
20:00+25юв48802 0.0 1015308
14 мая, пт
пт1423:00+23всв358488 0.0 1016119
02:00+22св23956 0.0 101571
05:00+22св22967 0.1 101645
08:00+26в23764 0.1 1017502
11:00+31юв455526 0.3 10171496
14:00+32юв76485 0.3 10141163
17:00+29юв66585 0.0 1013929
20:00+25юв37825 0.0 1014206
15 мая, сб
сб1523:00+24в23855 0.0 101673
02:00+22всв22936 0.0 101524
05:00+22ссв119432 0.0 101514
08:00+26св11765 0.1 1016397
11:00+31юв545432 0.1 10161499
14:00+32ююв55430 0.1 10141527
17:00+29ююв54582 0.0 10131069
20:00+25юв34820 0.1 1015102
16 мая, вс
вс1623:00+24вюв22851 0.0 101631
02:00+22в22911 0.0 101539
05:00+21св22952 0.0 101520
08:00+26всв22760 0.0 1016359
11:00+31юв55521 0.1 10161489
14:00+32ююв65443 0.1 10151536
17:00+30юв555517 0.0 10141110
20:00+25юв35845 0.3 101688
17 мая, пн
пн1723:00+23всв24905 1.1 101789
02:00+22св229526 1.3 101631
05:00+22всв229560 0.1 101628
08:00+25в35785 0.1 1017452
11:00+30юв565418 1.0 10171530
14:00+32юв66479 1.1 10161545
17:00+30ююв565256 0.0 10151113
20:00+25ююв348328 0.0 101678